Regional Weather Roundup
Issued by NWS

Home | Current Version | Previous Version | Text Only | Print | Product List | Glossary Off
Versions: 1 2 3 4 5 6 7 8 9 10 11 12 13 14 15 16 17 18 19 20 21 22 23 24 25 26 27 28 29 30 31 32 33 34 35 36 37 38 39 40 41 42 43 44 45 46 47 48 49 50

970
ASUS44 KJAN 182110
RWRMS

MISSISSIPPI HOURLY WEATHER ROUNDUP
NATIONAL WEATHER SERVICE JACKSON MS
400 PM CDT SAT APR 18 2015

NOTE: "FAIR: INDICATES FEW OR NO CLOUDS BELOW 12,000 FEET WITH NO
SIGNIFICANT WEATHER AND/OR OBSTRUCTIONS TO VISIBILITY.

MSZ001>002-007>008-010>013-018>021-025>028-034>036-182200-
NORTHWEST MISSISSIPPI

CITY           SKY/WX    TMP DP  RH WIND       PRES   REMARKS
CLARKSDALE     PTSUNNY   68  64  88 E7        29.88F
CLEVELAND      CLOUDY    69  65  88 E9        29.85F
GREENWOOD      CLOUDY    69  62  78 E8        29.87F
GREENVILLE     CLOUDY    68  65  90 E7        29.85F
OLIVE BRANCH   CLOUDY    70  66  88 S6        29.89F
OXFORD         PTSUNNY   66  61  82 SE6       29.92S
TUNICA         CLOUDY    68  61  77 SE7       29.90S
$$

MSZ003>006-009-014>017-022>024-029>033-037>039-182200-
NORTHEAST MISSISSIPPI

CITY           SKY/WX    TMP DP  RH WIND       PRES   REMARKS
COLUMBUS AFB   CLOUDY    69  62  79 SE7       29.89S
CORINTH        MOCLDY    75  61  60 VRB6      29.87F
GOLDN TRIANGLE CLOUDY    68  61  77 SE5       29.89F
STARKVILLE     CLOUDY    68  63  83 CALM      29.90S
TUPELO         CLOUDY    70  61  73 S6        29.89F
$$

MSZ040-058-182200-
CENTRAL MISSISSIPPI

CITY           SKY/WX    TMP DP  RH WIND       PRES   REMARKS
JACKSON INTL   CLOUDY    71  65  81 E8        29.86F
JACKSON HAWKNS CLOUDY    72  65  78 E6        29.86F
MERIDIAN KEY   CLOUDY    69  64  84 SE7       29.88S
MERIDIAN NAS   CLOUDY    70  63  78 SE5       29.88F
RAYMOND        CLOUDY    72  66  83 CALM      29.85F
VICKSBURG      LGT RAIN  69  67  93 E7        29.84F
$$

MSZ059>079-182200-
SOUTH MISSISSIPPI

CITY           SKY/WX    TMP DP  RH WIND       PRES   REMARKS
BROOKHAVEN       N/A    N/A N/A N/A CALM      29.86F
HATTIESBURG    PTSUNNY   79  67  66 S8        29.86F
MCCOMB         LGT RAIN  74  69  85 S9        29.84F
NATCHEZ        CLOUDY    72  66  83 N5        29.85F
PINE BELT      PTSUNNY   73  66  78 CALM      29.88S
$$

MSZ080>082-182200-
COASTAL MISSISSIPPI

CITY           SKY/WX    TMP DP  RH WIND       PRES   REMARKS
BAY ST LOUIS   PTSUNNY   75  66  73 MISG      29.87R
BILOXI         PTSUNNY   76  72  87 S10G16    29.86R
PASCAGOULA     CLOUDY    76  71  85 S6        29.87R
GULFPORT       CLOUDY    75  70  84 S8        29.86R
$$



USA.gov is the U.S. government's official web portal to all federal, state and local government web resources and services.